International Falls, MN

6:52 AM CDT on March 23, 2017 (GMT -0500)
Falls International

Weather History for KINL - April, 2014

Change the Weather History Date:

Saturday, April 26, 2014

  Actual Average Record
Temperature  
Mean Temperature 39 °F 44 °F  
Max Temperature 49 °F 57 °F 83 °F (1952)
Min Temperature 29 °F 32 °F 14 °F (1959)
Degree Days  
Heating Degree Days 26 21  
Month to date heating degree days 808 693  
Since 1 July heating degree days 10845 9559  
Cooling Degree Days 0 0  
Month to date cooling degree days 0 0  
Year to date cooling degree days 0 0  
Moisture  
Dew Point 27 °F    
Average Humidity 69    
Maximum Humidity 92    
Minimum Humidity 46    
Precipitation  
Precipitation T in 0.06 in 1.02 in (1912)
Month to date precipitation 1.29 1.25  
Year to date precipitation 4.50 3.39  
Snow  
Snow T in 0.20 in 7.40 in (1994)
Month to date snowfall 7.2 6.0  
Since 1 July snowfall 101.2 70.4  
Snow Depth T in    
Sea Level Pressure  
Sea Level Pressure 30.10 in    
Wind  
Wind Speed 9 mph (ESE)    
Max Wind Speed 17 mph    
Max Gust Speed 23 mph    
Visibility 10 miles    
Events      
T = Trace of Precipitation, MM = Missing Value Source: NWS Daily Summary

Daily Weather History Graph

Daily Weather History Graph

Search for Another Location

Airport or City:

Trip Planner

Search our weather history database for the weather conditions in past years. The results will help you decide how hot, cold, wet, or windy it might be!

Date:

Astronomy

Apr. 26, 2014 Rise Set
Actual Time 6:02 AM CDT 8:21 PM CDT
Civil Twilight 5:28 AM CDT 8:55 PM CDT
Nautical Twilight 4:45 AM CDT 9:39 PM CDT
Astronomical Twilight 3:55 AM CDT 10:28 PM CDT
Moon 4:42 AM CDT (4/26) 5:38 PM CDT (4/26)
Length of Visible Light 15h 27m
Length of Day
14h 18m
Waning Crescent, 8% of the Moon is Illuminated
Apr 26
Waning Crescent
Apr 29
New
May 6
First Quarter
May 14
Full
May 21
Last Quarter

Hourly Weather History & Observations

Time (CDT) Temp. Windchill Dew Point Humidity Pressure Visibility Wind Dir Wind Speed Gust Speed Precip Events Conditions
12:55 AM 32.0 °F 27.5 °F 27.0 °F 82% 30.05 in 10.0 mi ENE 4.6 mph - N/A   Clear
1:55 AM 30.9 °F 26.2 °F 27.0 °F 85% 30.06 in 10.0 mi ENE 4.6 mph - N/A   Clear
2:55 AM 28.9 °F 22.8 °F 26.1 °F 89% 30.07 in 10.0 mi NE 5.8 mph - N/A   Clear
3:55 AM 30.0 °F 23.2 °F 27.0 °F 88% 30.06 in 10.0 mi East 6.9 mph - N/A   Scattered Clouds
4:00 AM 30.0 °F 24.1 °F 27.0 °F 88% 30.02 in 10.0 mi East 5.8 mph - N/A   Mostly Cloudy
4:55 AM 30.9 °F 25.2 °F 27.0 °F 85% 30.09 in 10.0 mi East 5.8 mph - N/A   Overcast
5:55 AM 30.9 °F 22.8 °F 27.0 °F 85% 30.11 in 10.0 mi East 9.2 mph - N/A   Overcast
6:55 AM 30.9 °F 22.2 °F 26.1 °F 82% 30.12 in 10.0 mi East 10.4 mph - N/A   Overcast
7:55 AM 30.9 °F 21.7 °F 26.1 °F 82% 30.12 in 10.0 mi East 11.5 mph - N/A   Overcast
8:55 AM 32.0 °F 23.6 °F 27.0 °F 82% 30.12 in 10.0 mi ESE 10.4 mph - N/A   Overcast
9:55 AM 34.0 °F 28.0 °F 28.0 °F 79% 30.15 in 10.0 mi ESE 6.9 mph - N/A   Overcast
10:43 AM 37.0 °F 32.4 °F 28.9 °F 73% 30.10 in 10.0 mi Variable 5.8 mph - N/A   Scattered Clouds
10:55 AM 36.0 °F 31.1 °F 28.0 °F 73% 30.15 in 10.0 mi SE 5.8 mph - N/A   Mostly Cloudy
11:16 AM 39.0 °F 34.8 °F 30.0 °F 70% 30.11 in 10.0 mi ESE 5.8 mph - N/A   Scattered Clouds
11:55 AM 41.0 °F 35.8 °F 30.0 °F 65% 30.14 in 10.0 mi ESE 8.1 mph - N/A   Scattered Clouds
12:55 PM 42.1 °F 35.2 °F 28.9 °F 60% 30.13 in 10.0 mi SE 12.7 mph - N/A   Clear
1:55 PM 45.0 °F 38.9 °F 28.9 °F 53% 30.10 in 10.0 mi East 12.7 mph - N/A   Partly Cloudy
2:55 PM 48.0 °F - 30.0 °F 50% 30.09 in 10.0 mi ESE 13.8 mph 21.9 mph N/A   Clear
3:55 PM 48.0 °F - 30.0 °F 50% 30.09 in 10.0 mi East 13.8 mph 20.7 mph N/A   Clear
4:55 PM 48.0 °F - 28.0 °F 46% 30.07 in 10.0 mi ESE 11.5 mph 20.7 mph N/A   Clear
5:55 PM 46.9 °F - 28.0 °F 48% 30.08 in 10.0 mi East 11.5 mph - N/A   Clear
6:55 PM 46.0 °F 40.6 °F 28.0 °F 50% 30.08 in 10.0 mi East 11.5 mph - N/A   Clear
7:55 PM 43.0 °F 36.8 °F 27.0 °F 53% 30.08 in 10.0 mi East 11.5 mph - N/A   Clear
8:55 PM 41.0 °F 35.8 °F 27.0 °F 57% 30.09 in 10.0 mi East 8.1 mph - N/A   Clear
9:55 PM 39.0 °F 33.4 °F 26.1 °F 60% 30.11 in 10.0 mi ESE 8.1 mph - N/A   Clear
10:55 PM 36.0 °F 29.6 °F 25.0 °F 64% 30.14 in 10.0 mi SSE 8.1 mph - N/A   Clear
11:55 PM 33.1 °F 27.7 °F 21.9 °F 64% 30.14 in 10.0 mi SE 5.8 mph - N/A   Clear